User: anonymous   Login
Location: L�tisburg
(47.3947°N, 9.0820°E)
Time: 05:52:57
(UTC+00:00)
Language:

SJ 16-02 - Orbit

View from above orbital plane
View from above orbital plane
View from above satellite
View from above satellite

Ground track
Ground track

The orbit data is extracted from the following two-line orbital elements,

1 41634U 16043A   21128.44739897  .00000074  00000-0  11716-4 0  9998
2 41634  75.0040 185.0069 0008797 238.1260 121.9056 14.85797884263509
Epoch (UTC): 08 May 2021 10:44:15
Eccentricity: 0.0008797
inclination: 75.0040°
perigee height: 605 km
apogee height: 617 km
right ascension of ascending node: 185.0069°
argument of perigee: 238.1260°
revolutions per day: 14.85797884
mean anomaly at epoch: 121.9056°
orbit number at epoch: 26350

The dashed part of the orbit path shows where the satellite is in the earth's shadow,  

DLR